Regional Weather Roundup
Issued by NWS

Home | Current Version | Previous Version | Text Only | Print | Product List | Glossary On
Versions: 1 2 3 4 5 6 7 8 9 10 11 12 13 14 15 16 17 18 19 20 21 22 23 24 25 26 27 28 29 30 31 32 33 34 35 36 37 38 39 40 41 42 43 44 45 46 47 48 49 50
412
ASUS44 KJAN 221410
RWRMS

MISSISSIPPI HOURLY WEATHER ROUNDUP
NATIONAL WEATHER SERVICE JACKSON MS
900 AM CDT MON SEP 22 2014

NOTE: "FAIR: INDICATES FEW OR NO CLOUDS BELOW 12,000 FEET WITH NO
SIGNIFICANT WEATHER AND/OR OBSTRUCTIONS TO VISIBILITY.

MSZ001>002-007>008-010>013-018>021-025>028-034>036-221500-
NORTHWEST MISSISSIPPI

CITY           SKY/WX    TMP DP  RH WIND       PRES   REMARKS
CLARKSDALE     FAIR      66  54  63 NE14      30.20S
CLEVELAND      FAIR      68  55  63 NE15      30.18R
GREENWOOD      SUNNY     69  56  62 N6        30.16R
GREENVILLE     SUNNY     70  53  54 N12       30.17R
GRENADA        FAIR      66  52  59 NE8       30.17R
OXFORD         FAIR      63  52  67 NE12      30.20R
TUNICA         SUNNY     64  55  72 NE9       30.21R
$$

MSZ003>006-009-014>017-022>024-029>033-037>039-221500-
NORTHEAST MISSISSIPPI

CITY           SKY/WX    TMP DP  RH WIND       PRES   REMARKS
COLUMBUS AFB   SUNNY     68  54  60 N10       30.14R
CORINTH        FAIR      64  52  63 VRB6      30.18R
GOLDN TRIANGLE SUNNY     68  54  60 N12       30.14R
STARKVILLE     FAIR      66  55  68 N7        30.14R
TUPELO         SUNNY     65  54  67 NE8       30.16R
$$

MSZ040-058-221500-
CENTRAL MISSISSIPPI

CITY           SKY/WX    TMP DP  RH WIND       PRES   REMARKS
JACKSON INTL   MOSUNNY   74  56  53 NE12G21   30.11R
JACKSON HAWKNS PTSUNNY   73  57  57 NE9       30.12R
MERIDIAN KEY   SUNNY     74  57  55 N14       30.09R
MERIDIAN NAS   MOSUNNY   72  57  59 N8G18     30.11R
RAYMOND        FAIR      72  66  83 MISG      30.13R
VICKSBURG      MOSUNNY   72  58  61 N14       30.13R
$$

MSZ059>079-221500-
SOUTH MISSISSIPPI

CITY           SKY/WX    TMP DP  RH WIND       PRES   REMARKS
BROOKHAVEN     FAIR      73  63  68 N9        30.11R
COLUMBIA       FAIR      75  70  83 NE7       30.06R
HATTIESBURG    SUNNY     76  69  79 NE5       30.07R
MCCOMB         SUNNY     75  65  70 NE9       30.08R
NATCHEZ        SUNNY     73  64  73 N8        30.11R
PINE BELT      SUNNY    N/A N/A N/A N9        30.08R
$$

MSZ080>082-221500-
COASTAL MISSISSIPPI

CITY           SKY/WX    TMP DP  RH WIND       PRES   REMARKS
BAY ST LOUIS   SUNNY     75  70  83 CALM      30.04S
BILOXI         SUNNY     78  71  77 N2        30.04R
PASCAGOULA     SUNNY     78  72  81 N8        30.05R
GULFPORT       SUNNY     77  71  82 NW3       30.03S
$$



USA.gov is the U.S. government's official web portal to all federal, state and local government web resources and services.